• In Germany
  • List of Countries
  • For 7 days
  • Water Temperature
  • Satellite Maps
  • Weather Map
  • Weather Widgets
  • user-avatar
    Login

    Hourly Weather Cape Coast

    Today, 15 December, Friday

    Time Temperature Precipitation Wind Pressure Humidity
    00:00 +27°C° 0 mm 3 mps 758 mmHg 90%
    01:00 +26°C° 0 mm 3 mps 758 mmHg 92%
    02:00 +26°C° 0 mm 3 mps 758 mmHg 94%
    03:00 +26°C° 0 mm 3 mps 758 mmHg 96%
    04:00 +26°C° 0 mm 3 mps 758 mmHg 96%
    05:00 +26°C° 0 mm 2 mps 758 mmHg 97%
    06:00 +26°C° 0 mm 2 mps 758 mmHg 97%
    07:00 +27°C° 0.1 mm 2 mps 758 mmHg 89%
    08:00 +29°C° 0.1 mm 3 mps 758 mmHg 81%
    09:00 +30°C° 0.1 mm 3 mps 759 mmHg 73%
    10:00 +33°C° 0 mm 3 mps 758 mmHg 66%
    11:00 +34°C° 0 mm 3 mps 758 mmHg 59%
    12:00 +36°C° 0 mm 3 mps 758 mmHg 52%
    13:00 +35°C° 0.1 mm 4 mps 757 mmHg 54%
    14:00 +35°C° 0.1 mm 4 mps 757 mmHg 55%
    15:00 +35°C° 0.1 mm 4 mps 756 mmHg 57%
    16:00 +33°C° 0.2 mm 4 mps 756 mmHg 64%
    17:00 +32°C° 0.2 mm 4 mps 756 mmHg 70%
    18:00 +29°C° 0.2 mm 4 mps 756 mmHg 77%
    19:00 +29°C° 0 mm 4 mps 757 mmHg 80%
    20:00 +28°C° 0 mm 3 mps 758 mmHg 83%
    21:00 +28°C° 0 mm 3 mps 758 mmHg 86%
    22:00 +27°C° 0 mm 3 mps 758 mmHg 88%
    23:00 +27°C° 0 mm 3 mps 758 mmHg 89%

    Tomorrow, 16 December, Saturday

    Time Temperature Precipitation Wind Pressure Humidity
    00:00 +27°C° 0 mm 3 mps 758 mmHg 91%
    01:00 +26°C° 0 mm 3 mps 758 mmHg 92%
    02:00 +26°C° 0 mm 3 mps 757 mmHg 93%
    03:00 +26°C° 0 mm 3 mps 757 mmHg 95%
    04:00 +26°C° 0 mm 3 mps 757 mmHg 95%
    05:00 +25°C° 0 mm 3 mps 757 mmHg 96%
    06:00 +25°C° 0 mm 3 mps 757 mmHg 97%
    07:00 +27°C° 0 mm 3 mps 758 mmHg 89%
    08:00 +29°C° 0 mm 3 mps 758 mmHg 81%
    09:00 +30°C° 0 mm 3 mps 759 mmHg 73%
    10:00 +33°C° 0 mm 3 mps 759 mmHg 65%
    11:00 +35°C° 0 mm 4 mps 758 mmHg 58%
    12:00 +36°C° 0 mm 4 mps 758 mmHg 50%
    13:00 +36°C° 0.2 mm 4 mps 757 mmHg 53%
    14:00 +35°C° 0.2 mm 4 mps 757 mmHg 56%
    15:00 +35°C° 0.2 mm 4 mps 756 mmHg 58%
    16:00 +33°C° 0 mm 5 mps 756 mmHg 65%
    17:00 +32°C° 0 mm 5 mps 756 mmHg 71%
    18:00 +30°C° 0 mm 5 mps 757 mmHg 78%
    19:00 +29°C° 0 mm 5 mps 757 mmHg 80%
    20:00 +29°C° 0 mm 4 mps 758 mmHg 83%
    21:00 +28°C° 0 mm 4 mps 758 mmHg 85%
    22:00 +28°C° 0 mm 4 mps 758 mmHg 86%
    23:00 +27°C° 0 mm 4 mps 758 mmHg 87%

    Day after tomorrow, 17 December, Sunday

    Time Temperature Precipitation Wind Pressure Humidity
    00:00 +27°C° 0 mm 4 mps 758 mmHg 89%
    01:00 +27°C° 0 mm 4 mps 758 mmHg 90%
    02:00 +27°C° 0 mm 4 mps 757 mmHg 91%
    03:00 +26°C° 0 mm 4 mps 756 mmHg 93%
    04:00 +26°C° 0 mm 4 mps 757 mmHg 94%
    05:00 +26°C° 0 mm 3 mps 757 mmHg 95%
    06:00 +26°C° 0 mm 3 mps 757 mmHg 96%
    07:00 +28°C° 0 mm 3 mps 758 mmHg 89%
    08:00 +29°C° 0 mm 4 mps 758 mmHg 81%
    09:00 +32°C° 0 mm 4 mps 759 mmHg 74%
    10:00 +32°C° 0 mm 4 mps 758 mmHg 71%
    11:00 +33°C° 0 mm 4 mps 758 mmHg 67%
    12:00 +34°C° 0 mm 4 mps 757 mmHg 64%
    13:00 +34°C° 0 mm 4 mps 757 mmHg 63%
    14:00 +34°C° 0 mm 4 mps 756 mmHg 62%
    15:00 +34°C° 0 mm 4 mps 755 mmHg 62%
    16:00 +33°C° 0.1 mm 4 mps 756 mmHg 68%
    17:00 +32°C° 0.1 mm 4 mps 756 mmHg 75%
    18:00 +29°C° 0.1 mm 4 mps 756 mmHg 81%
    19:00 +29°C° 0 mm 4 mps 757 mmHg 84%
    20:00 +28°C° 0 mm 4 mps 758 mmHg 86%
    21:00 +28°C° 0 mm 4 mps 758 mmHg 89%
    22:00 +28°C° 0 mm 4 mps 758 mmHg 90%
    23:00 +27°C° 0 mm 4 mps 758 mmHg 90%

    18 December, Monday

    Time Temperature Precipitation Wind Pressure Humidity
    00:00 +27°C° 0 mm 4 mps 758 mmHg 91%
    01:00 +27°C° 0 mm 4 mps 757 mmHg 92%
    02:00 +27°C° 0 mm 4 mps 757 mmHg 93%
    03:00 +27°C° 0 mm 4 mps 756 mmHg 94%
    04:00 +26°C° 0 mm 4 mps 757 mmHg 95%
    05:00 +26°C° 0 mm 4 mps 757 mmHg 96%
    06:00 +26°C° 0 mm 4 mps 757 mmHg 97%
    07:00 +28°C° 0 mm 4 mps 758 mmHg 89%
    08:00 +29°C° 0 mm 4 mps 758 mmHg 82%
    09:00 +32°C° 0 mm 4 mps 758 mmHg 75%
    10:00 +33°C° 0.1 mm 4 mps 758 mmHg 71%
    11:00 +33°C° 0.1 mm 4 mps 758 mmHg 68%
    12:00 +34°C° 0.1 mm 4 mps 757 mmHg 64%
    13:00 +34°C° 0.3 mm 5 mps 757 mmHg 65%
    14:00 +34°C° 0.3 mm 5 mps 756 mmHg 66%
    15:00 +34°C° 0.3 mm 5 mps 756 mmHg 67%
    16:00 +32°C° 0.4 mm 5 mps 756 mmHg 73%
    17:00 +30°C° 0.4 mm 4 mps 756 mmHg 79%
    18:00 +29°C° 0.4 mm 4 mps 756 mmHg 84%
    19:00 +28°C° 0.1 mm 4 mps 757 mmHg 87%
    20:00 +28°C° 0.1 mm 4 mps 758 mmHg 89%
    21:00 +27°C° 0.1 mm 3 mps 758 mmHg 91%
    22:00 +27°C° 0 mm 3 mps 758 mmHg 92%
    23:00 +27°C° 0 mm 3 mps 758 mmHg 93%

    19 December, Tuesday

    Time Temperature Precipitation Wind Pressure Humidity
    00:00 +26°C° 0 mm 3 mps 758 mmHg 94%
    01:00 +26°C° 0 mm 3 mps 757 mmHg 95%
    02:00 +26°C° 0 mm 3 mps 757 mmHg 96%
    03:00 +26°C° 0 mm 3 mps 756 mmHg 96%
    04:00 +26°C° 0 mm 4 mps 757 mmHg 96%
    05:00 +26°C° 0 mm 4 mps 757 mmHg 96%
    06:00 +26°C° 0 mm 4 mps 757 mmHg 97%
    07:00 +27°C° 0 mm 4 mps 758 mmHg 89%
    08:00 +29°C° 0 mm 4 mps 758 mmHg 82%
    09:00 +30°C° 0 mm 4 mps 759 mmHg 75%
    10:00 +32°C° 0.1 mm 4 mps 758 mmHg 70%
    11:00 +33°C° 0.1 mm 4 mps 758 mmHg 66%
    12:00 +34°C° 0.1 mm 4 mps 758 mmHg 62%
    13:00 +34°C° 0.6 mm 5 mps 757 mmHg 64%
    14:00 +33°C° 0.6 mm 5 mps 756 mmHg 67%
    15:00 +33°C° 0.6 mm 5 mps 756 mmHg 69%
    16:00 +32°C° 0.1 mm 5 mps 756 mmHg 74%
    17:00 +30°C° 0.1 mm 4 mps 756 mmHg 78%
    18:00 +29°C° 0.1 mm 4 mps 757 mmHg 83%
    19:00 +28°C° 0 mm 4 mps 757 mmHg 85%
    20:00 +28°C° 0 mm 3 mps 758 mmHg 88%
    21:00 +27°C° 0 mm 3 mps 758 mmHg 90%
    22:00 +27°C° 0 mm 3 mps 758 mmHg 91%
    23:00 +27°C° 0 mm 3 mps 758 mmHg 92%

    20 December, Wednesday

    Time Temperature Precipitation Wind Pressure Humidity
    00:00 +26°C° 0 mm 3 mps 757 mmHg 94%
    01:00 +26°C° 0 mm 3 mps 757 mmHg 94%
    02:00 +26°C° 0 mm 3 mps 757 mmHg 95%
    03:00 +26°C° 0 mm 3 mps 756 mmHg 96%
    04:00 +26°C° 0 mm 3 mps 756 mmHg 96%
    05:00 +26°C° 0 mm 3 mps 757 mmHg 97%
    06:00 +25°C° 0 mm 3 mps 757 mmHg 97%
    07:00 +27°C° 0 mm 3 mps 757 mmHg 89%
    08:00 +29°C° 0 mm 3 mps 758 mmHg 82%
    09:00 +30°C° 0 mm 3 mps 758 mmHg 75%
    10:00 +31°C° 0 mm 3 mps 758 mmHg 69%
    11:00 +34°C° 0 mm 4 mps 758 mmHg 64%
    12:00 +35°C° 0 mm 4 mps 757 mmHg 59%
    13:00 +34°C° 0.4 mm 4 mps 757 mmHg 61%
    14:00 +34°C° 0.4 mm 4 mps 756 mmHg 64%
    15:00 +33°C° 0.4 mm 4 mps 756 mmHg 67%
    16:00 +32°C° 0.4 mm 4 mps 756 mmHg 73%
    17:00 +30°C° 0.4 mm 4 mps 756 mmHg 79%
    18:00 +29°C° 0.4 mm 4 mps 757 mmHg 86%
    19:00 +28°C° 0 mm 4 mps 757 mmHg 87%
    20:00 +28°C° 0 mm 4 mps 757 mmHg 89%
    21:00 +27°C° 0 mm 4 mps 758 mmHg 91%
    22:00 +27°C° 0 mm 4 mps 758 mmHg 92%
    23:00 +27°C° 0 mm 4 mps 758 mmHg 92%
    Show more